Дата Пункты Температура Давл., мм. Влажн., % Ветер Погодные явления
Воздуха Воды Направл. Скорость
20.01.20 11:00 Одесса 1.0 3.0 776 78 Пн-З 3 23 ГОДИНИ
20.01.20 05:00 Одесса -1.0 3.0 775 81 Пн 4 17 ГОДИН
20.01.20 02:00 Одесса -1.0 3.0 775 83 Пн 3 14 ГОДИН
20.01.20 11:00 Одесса -1.0 3.0 775 85 Пн 4 11 ГОДИН
20.01.20 08:00 Одесса -2.0 3.0 774 90 Пн 5 08 ГОДИН
20.01.20 05:00 Одесса -3.0 3.0 773 93 Пн 3 05 ГОДИН
20.01.20 02:00 Одесса -3.0 3.0 773 93 Пн 2 02 ГОДИНИ
19.01.20 11:00 Одесса -2.0 3.0 772 91 Пн 3 23 ГОДИНИ
19.01.20 08:00 Одесса -1.0 3.0 771 88 Пн-С 4 20 ГОДИН
19.01.20 05:00 Одесса -1.0 4.0 770 91 Пн 4 17 ГОДИН
19.01.20 02:00 Одесса -1.0 4.0 769 91 Пн 2 14 ГОДИН
19.01.20 11:00 Одесса -1.0 4.0 769 96 Пн-С 5 11 ГОДИН
19.01.20 08:00 Одесса -2.0 4.0 769 96 Пн-С 5 08 ГОДИН
19.01.20 05:00 Одесса -1.0 4.0 768 100 Пн-С 3 05 ГОДИН
18.01.20 11:00 Одесса 1.0 4.0 769 93 Пн-С 4 23 ГОДИНИ
18.01.20 08:00 Одесса -1.0 4.0 769 85 Пн 1 20 ГОДИН
18.01.20 05:00 Одесса 1.0 4.0 769 81 Пн 0 17 ГОДИН
18.01.20 02:00 Одесса 3.0 4.0 770 72 С 1 14 ГОДИН
18.01.20 11:00 Одесса 2.0 5.0 771 77 С 2 11 ГОДИН
18.01.20 08:00 Одесса 2.0 5.0 771 77 С 2 08 ГОДИН
Количество строк
1 2 3 4 5 6 7 8 9 10
Page 3 of 579